Time,TemperatureF,DewpointF,PressureIn,WindDirection,WindDirectionDegrees,WindSpeedMPH,WindSpeedGustMPH,Humidity,HourlyPrecipIn,Conditions,Clouds,dailyrainin,SolarRadiationWatts/m^2,SoftwareType,DateUTC
2013-04-09 00:00:00,58.6,48.1,29.72,SW,229,0.0,0.0,68,0.00,,,0.00,0,WeatherCatV1.14B232,2013-04-09 04:00:00,
2013-04-09 00:01:00,58.5,48.0,29.72,SW,229,0.0,0.0,68,0.00,,,0.00,0,WeatherCatV1.14B232,2013-04-09 04:01:00,
2013-04-09 00:06:00,58.5,48.0,29.72,SW,229,0.0,0.0,68,0.00,,,0.00,0,WeatherCatV1.14B232,2013-04-09 04:06:00,
2013-04-09 00:11:00,58.4,48.3,29.72,SW,229,0.0,0.0,69,0.00,,,0.00,0,WeatherCatV1.14B232,2013-04-09 04:11:00,
2013-04-09 00:16:00,58.2,48.1,29.72,SW,229,0.0,0.0,69,0.00,,,0.00,0,WeatherCatV1.14B232,2013-04-09 04:16:00,
2013-04-09 00:21:00,58.2,48.5,29.72,SW,229,0.0,0.0,70,0.00,,,0.00,0,WeatherCatV1.14B232,2013-04-09 04:21:00,
2013-04-09 00:24:00,58.1,48.4,29.72,SW,229,0.0,0.0,70,0.00,,,0.00,0,WeatherCatV1.14B232,2013-04-09 04:24:00,
2013-04-09 00:29:00,58.0,48.3,29.71,SW,229,0.0,0.0,70,0.00,,,0.00,0,WeatherCatV1.14B232,2013-04-09 04:29:00,
2013-04-09 00:34:00,58.0,48.3,29.71,SW,229,0.0,0.0,70,0.00,,,0.00,0,WeatherCatV1.14B232,2013-04-09 04:34:00,
2013-04-09 00:39:00,57.9,48.6,29.72,SW,229,0.0,0.0,71,0.00,,,0.00,0,WeatherCatV1.14B232,2013-04-09 04:39:00,
2013-04-09 00:44:00,57.9,48.9,29.72,SW,229,0.0,0.0,72,0.00,,,0.00,0,WeatherCatV1.14B232,2013-04-09 04:44:00,
2013-04-09 00:49:00,57.8,49.2,29.72,SW,229,0.0,0.0,73,0.00,,,0.00,0,WeatherCatV1.14B232,2013-04-09 04:49:00,
2013-04-09 00:54:00,57.7,49.1,29.72,SW,229,0.0,0.0,73,0.00,,,0.00,0,WeatherCatV1.14B232,2013-04-09 04:54:00,
2013-04-09 00:59:00,57.7,49.1,29.72,SW,229,0.0,0.0,73,0.00,,,0.00,0,WeatherCatV1.14B232,2013-04-09 04:59:00,
2013-04-09 01:04:00,57.7,49.5,29.71,SW,229,0.0,0.0,74,0.00,,,0.00,0,WeatherCatV1.14B232,2013-04-09 05:04:00,
2013-04-09 01:09:00,57.6,49.4,29.71,SE,132,0.0,1.0,74,0.00,,,0.00,0,WeatherCatV1.14B232,2013-04-09 05:09:00,
2013-04-09 01:14:00,57.5,49.3,29.71,SE,132,0.0,0.0,74,0.00,,,0.00,0,WeatherCatV1.14B232,2013-04-09 05:14:00,
2013-04-09 01:19:00,57.5,49.6,29.71,SE,132,0.0,0.0,75,0.00,,,0.00,0,WeatherCatV1.14B232,2013-04-09 05:19:00,
2013-04-09 01:24:00,57.5,49.6,29.71,SE,132,0.0,1.0,75,0.00,,,0.00,0,WeatherCatV1.14B232,2013-04-09 05:24:00,
2013-04-09 01:29:00,57.5,49.6,29.71,SE,132,0.0,0.0,75,0.00,,,0.00,0,WeatherCatV1.14B232,2013-04-09 05:29:00,
2013-04-09 01:34:00,57.5,49.6,29.71,SE,132,0.0,0.0,75,0.00,,,0.00,0,WeatherCatV1.14B232,2013-04-09 05:34:00,
2013-04-09 01:39:00,57.5,49.6,29.70,SE,132,0.0,0.0,75,0.00,,,0.00,0,WeatherCatV1.14B232,2013-04-09 05:39:00,
2013-04-09 01:44:00,57.5,49.6,29.70,SE,132,0.0,0.0,75,0.00,,,0.00,0,WeatherCatV1.14B232,2013-04-09 05:44:00,
2013-04-09 01:49:00,57.5,49.3,29.70,SE,132,0.0,0.0,74,0.00,,,0.00,0,WeatherCatV1.14B232,2013-04-09 05:49:00,
2013-04-09 01:54:00,57.5,49.6,29.70,SE,132,0.0,0.0,75,0.00,,,0.00,0,WeatherCatV1.14B232,2013-04-09 05:54:00,
2013-04-09 01:59:00,57.4,49.5,29.69,SE,132,0.0,0.0,75,0.00,,,0.00,0,WeatherCatV1.14B232,2013-04-09 05:59:00,
2013-04-09 02:04:00,57.4,49.2,29.69,SE,132,0.0,0.0,74,0.00,,,0.00,0,WeatherCatV1.14B232,2013-04-09 06:04:00,
2013-04-09 02:09:00,57.3,49.4,29.69,SE,132,0.0,0.0,75,0.00,,,0.00,0,WeatherCatV1.14B232,2013-04-09 06:09:00,
2013-04-09 02:14:00,57.3,49.4,29.69,SE,132,0.0,0.0,75,0.00,,,0.00,0,WeatherCatV1.14B232,2013-04-09 06:14:00,
2013-04-09 02:19:00,57.3,49.8,29.70,SE,132,0.0,0.0,76,0.00,,,0.00,0,WeatherCatV1.14B232,2013-04-09 06:19:00,
2013-04-09 02:24:00,57.3,49.4,29.69,SE,127,1.0,2.0,75,0.00,,,0.00,0,WeatherCatV1.14B232,2013-04-09 06:24:00,
2013-04-09 02:29:00,57.3,49.1,29.68,SE,127,0.0,0.0,74,0.00,,,0.00,0,WeatherCatV1.14B232,2013-04-09 06:29:00,
2013-04-09 02:34:00,57.3,49.1,29.68,SE,127,0.0,0.0,74,0.00,,,0.00,0,WeatherCatV1.14B232,2013-04-09 06:34:00,
2013-04-09 02:39:00,57.3,49.1,29.67,SE,127,0.0,0.0,74,0.00,,,0.00,0,WeatherCatV1.14B232,2013-04-09 06:39:00,
2013-04-09 02:44:00,57.3,49.1,29.67,SE,127,0.0,0.0,74,0.00,,,0.00,0,WeatherCatV1.14B232,2013-04-09 06:44:00,
2013-04-09 02:49:00,57.3,49.1,29.67,SE,127,0.0,0.0,74,0.00,,,0.00,0,WeatherCatV1.14B232,2013-04-09 06:49:00,
2013-04-09 02:54:00,57.2,49.0,29.68,SE,127,0.0,0.0,74,0.00,,,0.00,0,WeatherCatV1.14B232,2013-04-09 06:54:00,
2013-04-09 02:59:00,57.1,48.9,29.68,SE,127,0.0,0.0,74,0.00,,,0.00,0,WeatherCatV1.14B232,2013-04-09 06:59:00,
2013-04-09 03:04:00,56.9,48.7,29.68,SE,127,0.0,0.0,74,0.00,,,0.00,0,WeatherCatV1.14B232,2013-04-09 07:04:00,
2013-04-09 03:09:00,56.8,48.6,29.68,SE,127,0.0,0.0,74,0.00,,,0.00,0,WeatherCatV1.14B232,2013-04-09 07:09:00,
2013-04-09 03:14:00,56.7,48.9,29.68,SE,127,0.0,0.0,75,0.00,,,0.00,0,WeatherCatV1.14B232,2013-04-09 07:14:00,
2013-04-09 03:19:00,56.6,49.1,29.68,SE,127,0.0,0.0,76,0.00,,,0.00,0,WeatherCatV1.14B232,2013-04-09 07:19:00,
2013-04-09 03:24:00,56.4,49.3,29.68,SE,127,0.0,0.0,77,0.00,,,0.00,0,WeatherCatV1.14B232,2013-04-09 07:24:00,
2013-04-09 03:29:00,56.2,48.7,29.68,SE,127,0.0,0.0,76,0.00,,,0.00,0,WeatherCatV1.14B232,2013-04-09 07:29:00,
2013-04-09 03:34:00,56.1,48.6,29.68,SE,127,0.0,0.0,76,0.00,,,0.00,0,WeatherCatV1.14B232,2013-04-09 07:34:00,
2013-04-09 03:39:00,56.0,48.9,29.68,SE,127,0.0,0.0,77,0.00,,,0.00,0,WeatherCatV1.14B232,2013-04-09 07:39:00,
2013-04-09 03:44:00,55.9,49.1,29.68,SE,127,0.0,0.0,78,0.00,,,0.00,0,WeatherCatV1.14B232,2013-04-09 07:44:00,
2013-04-09 03:49:00,55.7,48.9,29.68,SE,127,0.0,0.0,78,0.00,,,0.00,0,WeatherCatV1.14B232,2013-04-09 07:49:00,
2013-04-09 03:54:00,55.6,48.5,29.68,SE,127,0.0,0.0,77,0.00,,,0.00,0,WeatherCatV1.14B232,2013-04-09 07:54:00,
2013-04-09 03:59:00,55.5,48.8,29.68,SE,127,0.0,0.0,78,0.00,,,0.00,0,WeatherCatV1.14B232,2013-04-09 07:59:00,
2013-04-09 04:04:00,55.4,48.7,29.68,SE,127,0.0,0.0,78,0.00,,,0.00,0,WeatherCatV1.14B232,2013-04-09 08:04:00,
2013-04-09 04:09:00,55.3,48.6,29.68,SE,127,0.0,0.0,78,0.00,,,0.00,0,WeatherCatV1.14B232,2013-04-09 08:09:00,
2013-04-09 04:14:00,55.1,48.4,29.68,SE,127,0.0,0.0,78,0.00,,,0.00,0,WeatherCatV1.14B232,2013-04-09 08:14:00,
2013-04-09 04:19:00,55.0,48.3,29.68,SE,127,0.0,0.0,78,0.00,,,0.00,0,WeatherCatV1.14B232,2013-04-09 08:19:00,
2013-04-09 04:24:00,54.9,48.2,29.68,SE,127,0.0,0.0,78,0.00,,,0.00,0,WeatherCatV1.14B232,2013-04-09 08:24:00,
2013-04-09 04:29:00,54.7,48.0,29.68,SE,127,0.0,0.0,78,0.00,,,0.00,0,WeatherCatV1.14B232,2013-04-09 08:29:00,
2013-04-09 04:34:00,54.5,48.1,29.68,SE,127,0.0,0.0,79,0.00,,,0.00,0,WeatherCatV1.14B232,2013-04-09 08:34:00,
2013-04-09 04:39:00,54.4,48.0,29.68,SE,127,0.0,0.0,79,0.00,,,0.00,0,WeatherCatV1.14B232,2013-04-09 08:39:00,
2013-04-09 04:44:00,54.2,47.8,29.68,SE,127,0.0,0.0,79,0.00,,,0.00,0,WeatherCatV1.14B232,2013-04-09 08:44:00,
2013-04-09 04:49:00,54.1,47.7,29.68,SE,127,0.0,0.0,79,0.00,,,0.00,0,WeatherCatV1.14B232,2013-04-09 08:49:00,
2013-04-09 04:54:00,54.0,48.0,29.68,SE,127,0.0,0.0,80,0.00,,,0.00,0,WeatherCatV1.14B232,2013-04-09 08:54:00,
2013-04-09 04:59:00,53.8,47.8,29.68,SE,127,0.0,0.0,80,0.00,,,0.00,0,WeatherCatV1.14B232,2013-04-09 08:59:00,
2013-04-09 05:04:00,53.6,47.9,29.68,SE,127,0.0,0.0,81,0.00,,,0.00,0,WeatherCatV1.14B232,2013-04-09 09:04:00,
2013-04-09 05:09:00,53.3,47.6,29.68,SE,127,0.0,0.0,81,0.00,,,0.00,0,WeatherCatV1.14B232,2013-04-09 09:09:00,
2013-04-09 05:14:00,53.2,47.5,29.68,SE,127,0.0,0.0,81,0.00,,,0.00,0,WeatherCatV1.14B232,2013-04-09 09:14:00,
2013-04-09 05:19:00,53.0,47.3,29.68,SE,127,0.0,0.0,81,0.00,,,0.00,0,WeatherCatV1.14B232,2013-04-09 09:19:00,
2013-04-09 05:24:00,52.9,47.2,29.68,SE,127,0.0,0.0,81,0.00,,,0.00,0,WeatherCatV1.14B232,2013-04-09 09:24:00,
2013-04-09 05:29:00,52.7,47.0,29.68,SE,127,0.0,0.0,81,0.00,,,0.00,0,WeatherCatV1.14B232,2013-04-09 09:29:00,
2013-04-09 05:34:00,52.5,47.2,29.68,SE,127,0.0,0.0,82,0.00,,,0.00,0,WeatherCatV1.14B232,2013-04-09 09:34:00,
2013-04-09 05:39:00,52.4,47.1,29.68,SE,127,0.0,0.0,82,0.00,,,0.00,0,WeatherCatV1.14B232,2013-04-09 09:39:00,
2013-04-09 05:44:00,52.2,46.9,29.68,SE,127,0.0,0.0,82,0.00,,,0.00,0,WeatherCatV1.14B232,2013-04-09 09:44:00,
2013-04-09 05:49:00,52.1,46.8,29.68,SE,127,0.0,0.0,82,0.00,,,0.00,0,WeatherCatV1.14B232,2013-04-09 09:49:00,
2013-04-09 05:54:00,51.9,46.9,29.68,SE,127,0.0,0.0,83,0.00,,,0.00,0,WeatherCatV1.14B232,2013-04-09 09:54:00,
2013-04-09 05:59:00,51.8,46.8,29.68,SE,127,0.0,0.0,83,0.00,,,0.00,0,WeatherCatV1.14B232,2013-04-09 09:59:00,
2013-04-09 06:04:00,51.7,47.0,29.68,SE,127,0.0,0.0,84,0.00,,,0.00,0,WeatherCatV1.14B232,2013-04-09 10:04:00,
2013-04-09 06:09:00,51.5,46.8,29.69,SE,127,0.0,0.0,84,0.00,,,0.00,0,WeatherCatV1.14B232,2013-04-09 10:09:00,
2013-04-09 06:14:00,51.4,46.7,29.69,SE,127,0.0,0.0,84,0.00,,,0.00,0,WeatherCatV1.14B232,2013-04-09 10:14:00,
2013-04-09 06:19:00,51.3,46.6,29.69,SE,127,0.0,0.0,84,0.00,,,0.00,0,WeatherCatV1.14B232,2013-04-09 10:19:00,
2013-04-09 06:24:00,51.2,46.8,29.69,SE,127,0.0,0.0,85,0.00,,,0.00,0,WeatherCatV1.14B232,2013-04-09 10:24:00,
2013-04-09 06:29:00,51.1,46.7,29.70,SE,127,0.0,0.0,85,0.00,,,0.00,0,WeatherCatV1.14B232,2013-04-09 10:29:00,
2013-04-09 06:34:00,50.9,46.6,29.70,SE,127,0.0,0.0,85,0.00,,,0.00,0,WeatherCatV1.14B232,2013-04-09 10:34:00,
2013-04-09 06:39:00,50.8,46.8,29.70,SE,127,0.0,0.0,86,0.00,,,0.00,5,WeatherCatV1.14B232,2013-04-09 10:39:00,
2013-04-09 06:44:00,50.7,46.7,29.70,SE,127,0.0,0.0,86,0.00,,,0.00,9,WeatherCatV1.14B232,2013-04-09 10:44:00,
2013-04-09 06:49:00,50.6,46.6,29.70,SE,127,0.0,0.0,86,0.00,,,0.00,12,WeatherCatV1.14B232,2013-04-09 10:49:00,
2013-04-09 06:54:00,50.5,46.5,29.70,SE,127,0.0,0.0,86,0.00,,,0.00,16,WeatherCatV1.14B232,2013-04-09 10:54:00,
2013-04-09 06:59:00,50.4,46.7,29.70,SE,127,0.0,0.0,87,0.00,,,0.00,21,WeatherCatV1.14B232,2013-04-09 10:59:00,
2013-04-09 07:04:00,50.3,46.6,29.70,SE,127,0.0,0.0,87,0.00,,,0.00,23,WeatherCatV1.14B232,2013-04-09 11:04:00,
2013-04-09 07:09:00,50.3,46.3,29.70,SE,127,0.0,0.0,86,0.00,,,0.00,26,WeatherCatV1.14B232,2013-04-09 11:09:00,
2013-04-09 07:14:00,50.2,46.5,29.70,SE,127,0.0,0.0,87,0.00,,,0.00,28,WeatherCatV1.14B232,2013-04-09 11:14:00,
2013-04-09 07:19:00,50.2,46.8,29.71,SE,127,0.0,0.0,88,0.00,,,0.00,28,WeatherCatV1.14B232,2013-04-09 11:19:00,
2013-04-09 07:24:00,50.2,46.8,29.71,SE,127,0.0,0.0,88,0.00,,,0.00,35,WeatherCatV1.14B232,2013-04-09 11:24:00,
2013-04-09 07:29:00,50.2,46.8,29.71,SE,127,0.0,0.0,88,0.00,,,0.00,37,WeatherCatV1.14B232,2013-04-09 11:29:00,
2013-04-09 07:34:00,50.3,46.9,29.71,SE,127,0.0,0.0,88,0.00,,,0.00,47,WeatherCatV1.14B232,2013-04-09 11:34:00,
2013-04-09 07:39:00,50.4,47.3,29.71,SE,127,0.0,0.0,89,0.00,,,0.00,40,WeatherCatV1.14B232,2013-04-09 11:39:00,
2013-04-09 07:44:00,50.6,47.8,29.71,SE,127,0.0,0.0,90,0.00,,,0.00,47,WeatherCatV1.14B232,2013-04-09 11:44:00,
2013-04-09 07:49:00,50.9,48.1,29.71,SE,127,0.0,0.0,90,0.00,,,0.00,58,WeatherCatV1.14B232,2013-04-09 11:49:00,
2013-04-09 07:54:00,51.3,48.8,29.71,SE,127,0.0,2.0,91,0.00,,,0.00,53,WeatherCatV1.14B232,2013-04-09 11:54:00,
2013-04-09 07:59:00,51.9,49.4,29.71,SSE,148,1.0,2.0,91,0.00,,,0.00,49,WeatherCatV1.14B232,2013-04-09 11:59:00,
2013-04-09 08:04:00,52.8,50.2,29.71,SW,223,1.0,4.0,91,0.00,,,0.00,56,WeatherCatV1.14B232,2013-04-09 12:04:00,
2013-04-09 08:09:00,53.9,51.3,29.71,SSW,204,2.0,2.0,91,0.00,,,0.00,77,WeatherCatV1.14B232,2013-04-09 12:09:00,
2013-04-09 08:14:00,55.4,52.2,29.71,WSW,252,3.0,4.0,89,0.00,,,0.00,72,WeatherCatV1.14B232,2013-04-09 12:14:00,
2013-04-09 08:19:00,57.4,53.2,29.71,NW,307,3.0,4.0,86,0.00,,,0.00,84,WeatherCatV1.14B232,2013-04-09 12:19:00,
2013-04-09 08:24:00,59.0,53.2,29.71,WNW,288,2.0,2.0,81,0.00,,,0.00,58,WeatherCatV1.14B232,2013-04-09 12:24:00,
2013-04-09 08:29:00,60.8,53.2,29.71,SW,216,0.0,6.0,76,0.00,,,0.00,102,WeatherCatV1.14B232,2013-04-09 12:29:00,
2013-04-09 08:34:00,62.2,53.4,29.71,WNW,287,3.0,6.0,73,0.00,,,0.00,60,WeatherCatV1.14B232,2013-04-09 12:34:00,
2013-04-09 08:39:00,63.5,53.1,29.71,West,271,1.0,7.0,69,0.00,,,0.00,109,WeatherCatV1.14B232,2013-04-09 12:39:00,
2013-04-09 08:44:00,64.6,53.4,29.71,West,281,3.0,7.0,67,0.00,,,0.00,63,WeatherCatV1.14B232,2013-04-09 12:44:00,
2013-04-09 08:49:00,65.4,53.3,29.71,WNW,285,3.0,7.0,65,0.00,,,0.00,160,WeatherCatV1.14B232,2013-04-09 12:49:00,
2013-04-09 08:54:00,66.2,53.2,29.71,NW,311,6.0,9.0,63,0.00,,,0.00,79,WeatherCatV1.14B232,2013-04-09 12:54:00,
2013-04-09 08:59:00,67.0,53.5,29.71,WSW,240,1.0,6.0,62,0.00,,,0.00,81,WeatherCatV1.14B232,2013-04-09 12:59:00,
2013-04-09 09:04:00,67.6,53.2,29.71,WSW,249,0.0,9.0,60,0.00,,,0.00,265,WeatherCatV1.14B232,2013-04-09 13:04:00,
2013-04-09 09:09:00,68.2,53.3,29.71,WNW,300,2.0,9.0,59,0.00,,,0.00,183,WeatherCatV1.14B232,2013-04-09 13:09:00,
2013-04-09 09:14:00,68.8,53.9,29.70,WNW,291,2.0,5.0,59,0.00,,,0.00,162,WeatherCatV1.14B232,2013-04-09 13:14:00,
2013-04-09 09:19:00,69.2,53.8,29.70,WSW,246,8.0,8.0,58,0.00,,,0.00,211,WeatherCatV1.14B232,2013-04-09 13:19:00,
2013-04-09 09:24:00,69.7,53.8,29.70,SW,236,5.0,5.0,57,0.00,,,0.00,197,WeatherCatV1.14B232,2013-04-09 13:24:00,
2013-04-09 09:29:00,70.2,53.8,29.70,SW,229,5.0,9.0,56,0.00,,,0.00,272,WeatherCatV1.14B232,2013-04-09 13:29:00,
2013-04-09 09:34:00,70.6,53.6,29.70,WNW,283,3.0,8.0,55,0.00,,,0.00,367,WeatherCatV1.14B232,2013-04-09 13:34:00,
2013-04-09 09:39:00,71.0,54.0,29.70,WSW,242,6.0,10.0,55,0.00,,,0.00,341,WeatherCatV1.14B232,2013-04-09 13:39:00,
2013-04-09 09:44:00,71.4,53.9,29.69,WSW,255,5.0,13.0,54,0.00,,,0.00,355,WeatherCatV1.14B232,2013-04-09 13:44:00,
2013-04-09 09:49:00,71.8,54.2,29.70,WNW,295,10.0,10.0,54,0.00,,,0.00,220,WeatherCatV1.14B232,2013-04-09 13:49:00,
2013-04-09 09:54:00,72.3,54.2,29.70,South,190,4.0,9.0,53,0.00,,,0.00,211,WeatherCatV1.14B232,2013-04-09 13:54:00,
2013-04-09 09:59:00,72.7,53.5,29.70,SW,221,3.0,7.0,51,0.00,,,0.00,211,WeatherCatV1.14B232,2013-04-09 13:59:00,
2013-04-09 10:04:00,73.0,53.2,29.69,WNW,298,3.0,16.0,50,0.00,,,0.00,262,WeatherCatV1.14B232,2013-04-09 14:04:00,
2013-04-09 10:09:00,73.2,52.3,29.70,WSW,248,4.0,9.0,48,0.00,,,0.00,214,WeatherCatV1.14B232,2013-04-09 14:09:00,
2013-04-09 10:14:00,73.3,52.4,29.70,NW,313,4.0,9.0,48,0.00,,,0.00,283,WeatherCatV1.14B232,2013-04-09 14:14:00,
2013-04-09 10:19:00,73.4,51.3,29.69,NW,319,3.0,18.0,46,0.00,,,0.00,188,WeatherCatV1.14B232,2013-04-09 14:19:00,
2013-04-09 10:24:00,73.5,52.0,29.70,SSW,206,1.0,8.0,47,0.00,,,0.00,151,WeatherCatV1.14B232,2013-04-09 14:24:00,
2013-04-09 10:29:00,73.7,52.2,29.70,WSW,255,9.0,16.0,47,0.00,,,0.00,278,WeatherCatV1.14B232,2013-04-09 14:29:00,
2013-04-09 10:34:00,73.7,51.0,29.70,West,273,9.0,21.0,45,0.00,,,0.00,199,WeatherCatV1.14B232,2013-04-09 14:34:00,
2013-04-09 10:39:00,73.8,51.7,29.70,WSW,242,12.0,12.0,46,0.00,,,0.00,179,WeatherCatV1.14B232,2013-04-09 14:39:00,
2013-04-09 10:44:00,74.2,52.1,29.70,WNW,287,5.0,9.0,46,0.00,,,0.00,294,WeatherCatV1.14B232,2013-04-09 14:44:00,
2013-04-09 10:49:00,74.5,51.7,29.71,WNW,282,11.0,16.0,45,0.00,,,0.00,283,WeatherCatV1.14B232,2013-04-09 14:49:00,
2013-04-09 10:54:00,74.7,51.3,29.71,West,265,5.0,14.0,44,0.00,,,0.00,294,WeatherCatV1.14B232,2013-04-09 14:54:00,
2013-04-09 10:59:00,75.1,51.7,29.71,WNW,289,5.0,11.0,44,0.00,,,0.00,362,WeatherCatV1.14B232,2013-04-09 14:59:00,
2013-04-09 11:04:00,75.5,50.1,29.71,West,281,11.0,19.0,41,0.00,,,0.00,336,WeatherCatV1.14B232,2013-04-09 15:04:00,
2013-04-09 11:09:00,75.5,49.5,29.71,NW,311,1.0,17.0,40,0.00,,,0.00,322,WeatherCatV1.14B232,2013-04-09 15:09:00,
2013-04-09 11:14:00,75.7,49.6,29.71,WSW,255,4.0,12.0,40,0.00,,,0.00,334,WeatherCatV1.14B232,2013-04-09 15:14:00,
2013-04-09 11:19:00,75.8,49.7,29.71,WNW,286,7.0,8.0,40,0.00,,,0.00,376,WeatherCatV1.14B232,2013-04-09 15:19:00,
2013-04-09 11:24:00,75.9,49.1,29.72,SW,215,5.0,15.0,39,0.00,,,0.00,336,WeatherCatV1.14B232,2013-04-09 15:24:00,
2013-04-09 11:29:00,76.3,49.5,29.71,West,262,9.0,9.0,39,0.00,,,0.00,374,WeatherCatV1.14B232,2013-04-09 15:29:00,
2013-04-09 11:34:00,76.5,49.7,29.71,NW,317,3.0,10.0,39,0.00,,,0.00,271,WeatherCatV1.14B232,2013-04-09 15:34:00,
2013-04-09 11:39:00,76.7,49.2,29.71,West,265,5.0,10.0,38,0.00,,,0.00,408,WeatherCatV1.14B232,2013-04-09 15:39:00,
2013-04-09 11:44:00,76.7,48.4,29.71,West,276,6.0,12.0,37,0.00,,,0.00,503,WeatherCatV1.14B232,2013-04-09 15:44:00,
2013-04-09 11:49:00,77.1,48.8,29.71,West,281,9.0,9.0,37,0.00,,,0.00,589,WeatherCatV1.14B232,2013-04-09 15:49:00,
2013-04-09 11:54:00,77.5,48.4,29.71,NW,306,5.0,13.0,36,0.00,,,0.00,619,WeatherCatV1.14B232,2013-04-09 15:54:00,
2013-04-09 11:59:00,77.4,47.6,29.71,West,273,7.0,10.0,35,0.00,,,0.00,548,WeatherCatV1.14B232,2013-04-09 15:59:00,
2013-04-09 12:04:00,78.0,48.1,29.71,SW,220,5.0,8.0,35,0.00,,,0.00,520,WeatherCatV1.14B232,2013-04-09 16:04:00,
2013-04-09 12:09:00,78.1,45.8,29.71,WNW,292,7.0,13.0,32,0.00,,,0.00,629,WeatherCatV1.14B232,2013-04-09 16:09:00,
2013-04-09 12:14:00,78.4,46.1,29.71,SW,228,3.0,13.0,32,0.00,,,0.00,809,WeatherCatV1.14B232,2013-04-09 16:14:00,
2013-04-09 12:19:00,78.7,45.5,29.71,WNW,290,8.0,12.0,31,0.00,,,0.00,775,WeatherCatV1.14B232,2013-04-09 16:19:00,
2013-04-09 12:24:00,78.9,43.9,29.71,WNW,289,4.0,6.0,29,0.00,,,0.00,814,WeatherCatV1.14B232,2013-04-09 16:24:00,
2013-04-09 12:29:00,78.9,44.8,29.72,WNW,293,9.0,9.0,30,0.00,,,0.00,826,WeatherCatV1.14B232,2013-04-09 16:29:00,
2013-04-09 12:34:00,78.9,43.0,29.71,North,5,3.0,10.0,28,0.00,,,0.00,796,WeatherCatV1.14B232,2013-04-09 16:34:00,
2013-04-09 12:39:00,78.8,43.8,29.72,WNW,286,5.0,10.0,29,0.00,,,0.00,831,WeatherCatV1.14B232,2013-04-09 16:39:00,
2013-04-09 12:44:00,78.8,42.9,29.71,NW,323,8.0,9.0,28,0.00,,,0.00,856,WeatherCatV1.14B232,2013-04-09 16:44:00,
2013-04-09 12:49:00,79.0,44.0,29.71,NW,325,3.0,9.0,29,0.00,,,0.00,795,WeatherCatV1.14B232,2013-04-09 16:49:00,
2013-04-09 12:54:00,79.2,43.3,29.71,West,277,4.0,9.0,28,0.00,,,0.00,830,WeatherCatV1.14B232,2013-04-09 16:54:00,
2013-04-09 12:59:00,79.8,45.6,29.71,NNW,332,9.0,11.0,30,0.00,,,0.00,821,WeatherCatV1.14B232,2013-04-09 16:59:00,
2013-04-09 13:04:00,79.7,43.7,29.70,WSW,257,7.0,9.0,28,0.00,,,0.00,830,WeatherCatV1.14B232,2013-04-09 17:04:00,
2013-04-09 13:09:00,79.6,43.6,29.70,NNW,335,2.0,11.0,28,0.00,,,0.00,856,WeatherCatV1.14B232,2013-04-09 17:09:00,
2013-04-09 13:14:00,79.8,42.8,29.70,West,273,5.0,13.0,27,0.00,,,0.00,872,WeatherCatV1.14B232,2013-04-09 17:14:00,
2013-04-09 13:19:00,80.1,42.1,29.70,NNW,332,5.0,8.0,26,0.00,,,0.00,854,WeatherCatV1.14B232,2013-04-09 17:19:00,
2013-04-09 13:24:00,80.0,43.0,29.70,NNW,329,4.0,11.0,27,0.00,,,0.00,861,WeatherCatV1.14B232,2013-04-09 17:24:00,
2013-04-09 13:29:00,80.4,43.3,29.70,WSW,249,4.0,8.0,27,0.00,,,0.00,860,WeatherCatV1.14B232,2013-04-09 17:29:00,
2013-04-09 13:34:00,80.5,44.4,29.70,West,279,4.0,8.0,28,0.00,,,0.00,865,WeatherCatV1.14B232,2013-04-09 17:34:00,
2013-04-09 13:39:00,81.1,42.9,29.70,SW,236,5.0,7.0,26,0.00,,,0.00,861,WeatherCatV1.14B232,2013-04-09 17:39:00,
2013-04-09 13:44:00,80.5,42.4,29.70,WSW,244,2.0,6.0,26,0.00,,,0.00,849,WeatherCatV1.14B232,2013-04-09 17:44:00,
2013-04-09 13:49:00,80.3,42.3,29.70,WSW,247,2.0,12.0,26,0.00,,,0.00,844,WeatherCatV1.14B232,2013-04-09 17:49:00,
2013-04-09 13:54:00,81.2,44.0,29.70,WSW,237,8.0,8.0,27,0.00,,,0.00,851,WeatherCatV1.14B232,2013-04-09 17:54:00,
2013-04-09 13:59:00,81.6,44.4,29.70,WSW,243,4.0,5.0,27,0.00,,,0.00,846,WeatherCatV1.14B232,2013-04-09 17:59:00,
2013-04-09 14:04:00,81.4,41.1,29.70,WNW,288,8.0,10.0,24,0.00,,,0.00,844,WeatherCatV1.14B232,2013-04-09 18:04:00,
2013-04-09 14:09:00,81.0,40.8,29.70,NNW,329,7.0,15.0,24,0.00,,,0.00,800,WeatherCatV1.14B232,2013-04-09 18:09:00,
2013-04-09 14:14:00,80.8,40.6,29.70,NNW,344,1.0,5.0,24,0.00,,,0.00,823,WeatherCatV1.14B232,2013-04-09 18:14:00,
2013-04-09 14:19:00,81.7,43.5,29.69,West,281,5.0,6.0,26,0.00,,,0.00,824,WeatherCatV1.14B232,2013-04-09 18:19:00,
2013-04-09 14:24:00,81.9,40.4,29.69,WSW,252,2.0,11.0,23,0.00,,,0.00,819,WeatherCatV1.14B232,2013-04-09 18:24:00,
2013-04-09 14:29:00,81.9,41.5,29.70,NW,319,5.0,10.0,24,0.00,,,0.00,793,WeatherCatV1.14B232,2013-04-09 18:29:00,
2013-04-09 14:34:00,81.5,40.1,29.69,West,271,6.0,15.0,23,0.00,,,0.00,784,WeatherCatV1.14B232,2013-04-09 18:34:00,
2013-04-09 14:39:00,81.4,40.0,29.69,WNW,294,10.0,13.0,23,0.00,,,0.00,796,WeatherCatV1.14B232,2013-04-09 18:39:00,
2013-04-09 14:44:00,81.6,41.3,29.69,WSW,237,5.0,12.0,24,0.00,,,0.00,793,WeatherCatV1.14B232,2013-04-09 18:44:00,
2013-04-09 14:49:00,82.2,40.7,29.69,SW,235,4.0,6.0,23,0.00,,,0.00,779,WeatherCatV1.14B232,2013-04-09 18:49:00,
2013-04-09 14:54:00,82.4,39.7,29.69,North,11,4.0,6.0,22,0.00,,,0.00,766,WeatherCatV1.14B232,2013-04-09 18:54:00,
2013-04-09 14:59:00,82.3,39.6,29.68,NNW,341,1.0,14.0,22,0.00,,,0.00,763,WeatherCatV1.14B232,2013-04-09 18:59:00,
2013-04-09 15:04:00,81.8,39.2,29.68,NNW,332,4.0,6.0,22,0.00,,,0.00,763,WeatherCatV1.14B232,2013-04-09 19:04:00,
2013-04-09 15:09:00,81.9,40.4,29.68,NW,307,6.0,6.0,23,0.00,,,0.00,700,WeatherCatV1.14B232,2013-04-09 19:09:00,
2013-04-09 15:14:00,82.2,39.5,29.68,WNW,293,0.0,11.0,22,0.00,,,0.00,673,WeatherCatV1.14B232,2013-04-09 19:14:00,
2013-04-09 15:19:00,82.9,41.3,29.68,SW,229,1.0,9.0,23,0.00,,,0.00,125,WeatherCatV1.14B232,2013-04-09 19:19:00,
2013-04-09 15:24:00,82.6,41.0,29.68,WSW,240,2.0,8.0,23,0.00,,,0.00,128,WeatherCatV1.14B232,2013-04-09 19:24:00,
2013-04-09 15:29:00,82.8,38.8,29.68,WSW,250,3.0,7.0,21,0.00,,,0.00,680,WeatherCatV1.14B232,2013-04-09 19:29:00,
2013-04-09 15:34:00,82.7,40.0,29.68,NW,311,5.0,16.0,22,0.00,,,0.00,638,WeatherCatV1.14B232,2013-04-09 19:34:00,
2013-04-09 15:39:00,82.7,38.8,29.67,NW,312,3.0,6.0,21,0.00,,,0.00,649,WeatherCatV1.14B232,2013-04-09 19:39:00,
2013-04-09 15:44:00,83.0,39.0,29.67,SW,223,2.0,7.0,21,0.00,,,0.00,633,WeatherCatV1.14B232,2013-04-09 19:44:00,
2013-04-09 15:49:00,83.2,39.2,29.67,West,272,7.0,8.0,21,0.00,,,0.00,617,WeatherCatV1.14B232,2013-04-09 19:49:00,
2013-04-09 15:54:00,83.4,40.5,29.67,NW,321,0.0,6.0,22,0.00,,,0.00,605,WeatherCatV1.14B232,2013-04-09 19:54:00,
2013-04-09 15:59:00,83.5,38.2,29.67,West,260,3.0,6.0,20,0.00,,,0.00,541,WeatherCatV1.14B232,2013-04-09 19:59:00,
2013-04-09 16:04:00,82.9,40.1,29.67,NNW,336,5.0,9.0,22,0.00,,,0.00,577,WeatherCatV1.14B232,2013-04-09 20:04:00,
2013-04-09 16:09:00,82.3,38.4,29.67,NNW,327,3.0,11.0,21,0.00,,,0.00,552,WeatherCatV1.14B232,2013-04-09 20:09:00,
2013-04-09 16:14:00,82.7,40.0,29.67,NNE,15,3.0,6.0,22,0.00,,,0.00,454,WeatherCatV1.14B232,2013-04-09 20:14:00,
2013-04-09 16:19:00,82.7,40.0,29.67,WNW,288,3.0,9.0,22,0.00,,,0.00,299,WeatherCatV1.14B232,2013-04-09 20:19:00,
2013-04-09 16:24:00,82.6,39.9,29.66,West,279,3.0,9.0,22,0.00,,,0.00,346,WeatherCatV1.14B232,2013-04-09 20:24:00,
2013-04-09 16:29:00,82.7,38.8,29.66,South,171,7.0,9.0,21,0.00,,,0.00,371,WeatherCatV1.14B232,2013-04-09 20:29:00,
2013-04-09 16:34:00,82.7,38.8,29.66,West,276,4.0,8.0,21,0.00,,,0.00,364,WeatherCatV1.14B232,2013-04-09 20:34:00,
2013-04-09 16:39:00,82.7,38.8,29.66,West,262,3.0,6.0,21,0.00,,,0.00,206,WeatherCatV1.14B232,2013-04-09 20:39:00,
2013-04-09 16:44:00,82.9,37.7,29.66,South,188,3.0,5.0,20,0.00,,,0.00,105,WeatherCatV1.14B232,2013-04-09 20:44:00,
2013-04-09 16:49:00,83.0,39.0,29.66,SSW,208,7.0,10.0,21,0.00,,,0.00,418,WeatherCatV1.14B232,2013-04-09 20:49:00,
2013-04-09 16:54:00,83.1,40.3,29.66,NW,321,1.0,2.0,22,0.00,,,0.00,183,WeatherCatV1.14B232,2013-04-09 20:54:00,
2013-04-09 16:59:00,82.8,38.8,29.67,SSW,204,0.0,9.0,21,0.00,,,0.00,308,WeatherCatV1.14B232,2013-04-09 20:59:00,
2013-04-09 17:04:00,82.8,38.8,29.67,WNW,286,2.0,10.0,21,0.00,,,0.00,360,WeatherCatV1.14B232,2013-04-09 21:04:00,
2013-04-09 17:09:00,82.6,37.4,29.67,WNW,294,3.0,5.0,20,0.00,,,0.00,322,WeatherCatV1.14B232,2013-04-09 21:09:00,
2013-04-09 17:14:00,82.5,38.6,29.67,SW,234,5.0,5.0,21,0.00,,,0.00,350,WeatherCatV1.14B232,2013-04-09 21:14:00,
2013-04-09 17:19:00,82.3,37.2,29.67,WNW,290,5.0,7.0,20,0.00,,,0.00,299,WeatherCatV1.14B232,2013-04-09 21:19:00,
2013-04-09 17:24:00,82.2,37.1,29.67,West,263,1.0,6.0,20,0.00,,,0.00,315,WeatherCatV1.14B232,2013-04-09 21:24:00,
2013-04-09 17:29:00,82.2,37.1,29.67,West,274,3.0,4.0,20,0.00,,,0.00,244,WeatherCatV1.14B232,2013-04-09 21:29:00,
2013-04-09 17:34:00,82.2,37.1,29.67,West,261,9.0,9.0,20,0.00,,,0.00,241,WeatherCatV1.14B232,2013-04-09 21:34:00,
2013-04-09 17:39:00,82.1,37.0,29.67,NNW,330,1.0,5.0,20,0.00,,,0.00,251,WeatherCatV1.14B232,2013-04-09 21:39:00,
2013-04-09 17:44:00,82.0,38.2,29.67,SSW,205,3.0,6.0,21,0.00,,,0.00,192,WeatherCatV1.14B232,2013-04-09 21:44:00,
2013-04-09 17:49:00,82.2,38.4,29.68,WNW,284,1.0,4.0,21,0.00,,,0.00,230,WeatherCatV1.14B232,2013-04-09 21:49:00,
2013-04-09 17:54:00,82.2,35.8,29.68,WNW,286,4.0,7.0,19,0.00,,,0.00,207,WeatherCatV1.14B232,2013-04-09 21:54:00,
2013-04-09 17:59:00,82.0,37.0,29.68,West,272,0.0,6.0,20,0.00,,,0.00,70,WeatherCatV1.14B232,2013-04-09 21:59:00,
2013-04-09 18:04:00,81.9,35.6,29.68,West,280,1.0,6.0,19,0.00,,,0.00,67,WeatherCatV1.14B232,2013-04-09 22:04:00,
2013-04-09 18:09:00,81.7,35.4,29.68,West,281,6.0,7.0,19,0.00,,,0.00,156,WeatherCatV1.14B232,2013-04-09 22:09:00,
2013-04-09 18:14:00,81.6,36.6,29.67,SW,232,1.0,5.0,20,0.00,,,0.00,130,WeatherCatV1.14B232,2013-04-09 22:14:00,
2013-04-09 18:19:00,81.5,36.5,29.68,SW,221,2.0,5.0,20,0.00,,,0.00,111,WeatherCatV1.14B232,2013-04-09 22:19:00,
2013-04-09 18:24:00,81.3,36.4,29.68,SW,229,1.0,10.0,20,0.00,,,0.00,90,WeatherCatV1.14B232,2013-04-09 22:24:00,
2013-04-09 18:29:00,81.0,36.1,29.68,WSW,244,0.0,2.0,20,0.00,,,0.00,83,WeatherCatV1.14B232,2013-04-09 22:29:00,
2013-04-09 18:34:00,80.9,36.0,29.68,West,273,3.0,6.0,20,0.00,,,0.00,67,WeatherCatV1.14B232,2013-04-09 22:34:00,
2013-04-09 18:39:00,80.7,35.9,29.68,West,259,2.0,3.0,20,0.00,,,0.00,58,WeatherCatV1.14B232,2013-04-09 22:39:00,
2013-04-09 18:44:00,80.6,37.0,29.68,West,263,1.0,3.0,21,0.00,,,0.00,46,WeatherCatV1.14B232,2013-04-09 22:44:00,
2013-04-09 18:49:00,80.2,36.7,29.68,WSW,254,2.0,2.0,21,0.00,,,0.00,32,WeatherCatV1.14B232,2013-04-09 22:49:00,
2013-04-09 18:54:00,80.0,37.7,29.68,West,278,0.0,3.0,22,0.00,,,0.00,26,WeatherCatV1.14B232,2013-04-09 22:54:00,
2013-04-09 18:59:00,79.6,37.4,29.68,West,278,0.0,0.0,22,0.00,,,0.00,21,WeatherCatV1.14B232,2013-04-09 22:59:00,
2013-04-09 19:04:00,79.3,38.3,29.68,West,278,1.0,2.0,23,0.00,,,0.00,18,WeatherCatV1.14B232,2013-04-09 23:04:00,
2013-04-09 19:09:00,78.9,37.9,29.68,West,278,0.0,1.0,23,0.00,,,0.00,14,WeatherCatV1.14B232,2013-04-09 23:09:00,
2013-04-09 19:14:00,78.5,37.6,29.68,West,278,0.0,0.0,23,0.00,,,0.00,12,WeatherCatV1.14B232,2013-04-09 23:14:00,
2013-04-09 19:19:00,77.8,38.1,29.67,West,278,0.0,0.0,24,0.00,,,0.00,9,WeatherCatV1.14B232,2013-04-09 23:19:00,
2013-04-09 19:24:00,77.1,38.6,29.68,West,278,0.0,0.0,25,0.00,,,0.00,5,WeatherCatV1.14B232,2013-04-09 23:24:00,
2013-04-09 19:29:00,76.3,39.8,29.68,West,278,0.0,0.0,27,0.00,,,0.00,0,WeatherCatV1.14B232,2013-04-09 23:29:00,
2013-04-09 19:34:00,75.2,40.7,29.68,West,278,0.0,0.0,29,0.00,,,0.00,0,WeatherCatV1.14B232,2013-04-09 23:34:00,
2013-04-09 19:39:00,74.0,41.4,29.69,West,278,0.0,0.0,31,0.00,,,0.00,0,WeatherCatV1.14B232,2013-04-09 23:39:00,
2013-04-09 19:44:00,73.0,41.4,29.68,West,278,0.0,0.0,32,0.00,,,0.00,0,WeatherCatV1.14B232,2013-04-09 23:44:00,
2013-04-09 19:49:00,72.3,41.6,29.69,West,278,0.0,0.0,33,0.00,,,0.00,0,WeatherCatV1.14B232,2013-04-09 23:49:00,
2013-04-09 19:54:00,71.9,42.0,29.69,West,278,0.0,0.0,34,0.00,,,0.00,0,WeatherCatV1.14B232,2013-04-09 23:54:00,
2013-04-09 19:59:00,71.4,41.6,29.69,West,278,0.0,0.0,34,0.00,,,0.00,0,WeatherCatV1.14B232,2013-04-09 23:59:00,
2013-04-09 20:04:00,70.8,41.0,29.69,West,278,0.0,0.0,34,0.00,,,0.00,0,WeatherCatV1.14B232,2013-04-10 00:04:00,
2013-04-09 20:09:00,70.3,40.6,29.69,West,278,0.0,0.0,34,0.00,,,0.00,0,WeatherCatV1.14B232,2013-04-10 00:09:00,
2013-04-09 20:14:00,69.6,44.2,29.69,West,278,0.0,0.0,40,0.00,,,0.00,0,WeatherCatV1.14B232,2013-04-10 00:14:00,
2013-04-09 20:19:00,68.9,44.2,29.69,West,278,0.0,0.0,41,0.00,,,0.00,0,WeatherCatV1.14B232,2013-04-10 00:19:00,
2013-04-09 20:24:00,68.5,44.5,29.69,West,278,0.0,0.0,42,0.00,,,0.00,0,WeatherCatV1.14B232,2013-04-10 00:24:00,
2013-04-09 20:29:00,68.0,45.3,29.69,West,278,0.0,0.0,44,0.00,,,0.00,0,WeatherCatV1.14B232,2013-04-10 00:29:00,
2013-04-09 20:34:00,67.5,44.2,29.69,West,278,0.0,0.0,43,0.00,,,0.00,0,WeatherCatV1.14B232,2013-04-10 00:34:00,
2013-04-09 20:39:00,67.1,44.5,29.70,West,278,0.0,0.0,44,0.00,,,0.00,0,WeatherCatV1.14B232,2013-04-10 00:39:00,
2013-04-09 20:44:00,66.7,43.5,29.70,West,278,0.0,0.0,43,0.00,,,0.00,0,WeatherCatV1.14B232,2013-04-10 00:44:00,
2013-04-09 20:49:00,66.4,44.4,29.70,West,278,0.0,0.0,45,0.00,,,0.00,0,WeatherCatV1.14B232,2013-04-10 00:49:00,
2013-04-09 20:54:00,66.1,43.5,29.70,West,278,0.0,0.0,44,0.00,,,0.00,0,WeatherCatV1.14B232,2013-04-10 00:54:00,
2013-04-09 20:59:00,65.7,44.3,29.70,West,278,0.0,0.0,46,0.00,,,0.00,0,WeatherCatV1.14B232,2013-04-10 00:59:00,
2013-04-09 21:04:00,65.3,43.4,29.71,West,278,0.0,0.0,45,0.00,,,0.00,0,WeatherCatV1.14B232,2013-04-10 01:04:00,
2013-04-09 21:09:00,64.9,43.0,29.71,West,278,0.0,0.0,45,0.00,,,0.00,0,WeatherCatV1.14B232,2013-04-10 01:09:00,
2013-04-09 21:14:00,64.6,43.3,29.71,West,278,0.0,0.0,46,0.00,,,0.00,0,WeatherCatV1.14B232,2013-04-10 01:14:00,
2013-04-09 21:19:00,64.3,44.2,29.71,West,278,0.0,0.0,48,0.00,,,0.00,0,WeatherCatV1.14B232,2013-04-10 01:19:00,
2013-04-09 21:24:00,63.9,44.4,29.71,West,278,0.0,0.0,49,0.00,,,0.00,0,WeatherCatV1.14B232,2013-04-10 01:24:00,
2013-04-09 21:29:00,63.6,43.0,29.71,West,278,0.0,0.0,47,0.00,,,0.00,0,WeatherCatV1.14B232,2013-04-10 01:29:00,
2013-04-09 21:34:00,63.4,43.9,29.72,West,278,0.0,0.0,49,0.00,,,0.00,0,WeatherCatV1.14B232,2013-04-10 01:34:00,
2013-04-09 21:39:00,63.2,44.2,29.71,West,278,0.0,0.0,50,0.00,,,0.00,0,WeatherCatV1.14B232,2013-04-10 01:39:00,
2013-04-09 21:44:00,63.1,44.7,29.71,West,278,0.0,0.0,51,0.00,,,0.00,0,WeatherCatV1.14B232,2013-04-10 01:44:00,
2013-04-09 21:49:00,63.1,43.6,29.70,West,278,0.0,0.0,49,0.00,,,0.00,0,WeatherCatV1.14B232,2013-04-10 01:49:00,
2013-04-09 21:54:00,63.1,44.2,29.70,West,278,0.0,0.0,50,0.00,,,0.00,0,WeatherCatV1.14B232,2013-04-10 01:54:00,
2013-04-09 21:59:00,63.1,44.7,29.70,West,278,0.0,0.0,51,0.00,,,0.00,0,WeatherCatV1.14B232,2013-04-10 01:59:00,
2013-04-09 22:04:00,63.2,44.8,29.69,West,278,0.0,0.0,51,0.00,,,0.00,0,WeatherCatV1.14B232,2013-04-10 02:04:00,
2013-04-09 22:09:00,63.2,45.3,29.69,West,278,0.0,0.0,52,0.00,,,0.00,0,WeatherCatV1.14B232,2013-04-10 02:09:00,
2013-04-09 22:14:00,63.2,45.3,29.68,West,278,0.0,0.0,52,0.00,,,0.00,0,WeatherCatV1.14B232,2013-04-10 02:14:00,
2013-04-09 22:19:00,63.0,45.1,29.68,West,278,0.0,0.0,52,0.00,,,0.00,0,WeatherCatV1.14B232,2013-04-10 02:19:00,
2013-04-09 22:24:00,62.9,45.5,29.67,West,278,0.0,0.0,53,0.00,,,0.00,0,WeatherCatV1.14B232,2013-04-10 02:24:00,
2013-04-09 22:29:00,62.7,45.3,29.67,West,278,0.0,0.0,53,0.00,,,0.00,0,WeatherCatV1.14B232,2013-04-10 02:29:00,
2013-04-09 22:34:00,62.7,44.8,29.67,West,278,0.0,0.0,52,0.00,,,0.00,0,WeatherCatV1.14B232,2013-04-10 02:34:00,
2013-04-09 22:39:00,62.6,44.2,29.67,West,278,0.0,0.0,51,0.00,,,0.00,0,WeatherCatV1.14B232,2013-04-10 02:39:00,
2013-04-09 22:44:00,62.3,43.9,29.66,West,278,0.0,0.0,51,0.00,,,0.00,0,WeatherCatV1.14B232,2013-04-10 02:44:00,
2013-04-09 22:49:00,62.2,44.4,29.66,West,278,0.0,0.0,52,0.00,,,0.00,0,WeatherCatV1.14B232,2013-04-10 02:49:00,
2013-04-09 22:55:00,62.2,44.4,29.66,West,278,0.0,0.0,52,0.00,,,0.00,0,WeatherCatV1.14B232,2013-04-10 02:55:00,
2013-04-09 23:00:00,62.0,44.2,29.66,West,278,0.0,0.0,52,0.00,,,0.00,0,WeatherCatV1.14B232,2013-04-10 03:00:00,
2013-04-09 23:05:00,62.0,45.6,29.66,West,278,0.0,0.0,55,0.00,,,0.00,0,WeatherCatV1.14B232,2013-04-10 03:05:00,
2013-04-09 23:10:00,61.9,46.0,29.65,West,278,0.0,0.0,56,0.00,,,0.00,0,WeatherCatV1.14B232,2013-04-10 03:10:00,
2013-04-09 23:15:00,61.8,46.9,29.65,West,278,0.0,0.0,58,0.00,,,0.00,0,WeatherCatV1.14B232,2013-04-10 03:15:00,
2013-04-09 23:20:00,61.6,46.7,29.65,West,278,0.0,0.0,58,0.00,,,0.00,0,WeatherCatV1.14B232,2013-04-10 03:20:00,
2013-04-09 23:25:00,61.4,46.5,29.65,West,278,0.0,0.0,58,0.00,,,0.00,0,WeatherCatV1.14B232,2013-04-10 03:25:00,
2013-04-09 23:30:00,61.2,45.8,29.65,West,278,1.0,1.0,57,0.00,,,0.00,0,WeatherCatV1.14B232,2013-04-10 03:30:00,
2013-04-09 23:35:00,61.0,46.1,29.65,West,278,0.0,0.0,58,0.00,,,0.00,0,WeatherCatV1.14B232,2013-04-10 03:35:00,
2013-04-09 23:40:00,60.8,46.8,29.64,West,278,0.0,0.0,60,0.00,,,0.00,0,WeatherCatV1.14B232,2013-04-10 03:40:00,
2013-04-09 23:44:00,60.7,46.7,29.64,West,278,0.0,0.0,60,0.00,,,0.00,0,WeatherCatV1.14B232,2013-04-10 03:44:00,
2013-04-09 23:49:00,60.6,46.6,29.64,West,278,0.0,0.0,60,0.00,,,0.00,0,WeatherCatV1.14B232,2013-04-10 03:49:00,
2013-04-09 23:54:00,60.5,47.0,29.64,West,278,1.0,2.0,61,0.00,,,0.00,0,WeatherCatV1.14B232,2013-04-10 03:54:00,
2013-04-09 23:59:00,60.6,47.9,29.64,SW,215,0.0,2.0,63,0.00,,,0.00,0,WeatherCatV1.14B232,2013-04-10 03:59:00,